METEOSAT-8 (MSG1) 1 27509C 02040B 21011.00000000 .00000236 00000-0 00000-0 0 110 2 27509 7.0917 53.2115 0000360 163.4647 295.4476 1.00275164 10 METEOSAT-9 (MSG2) 1 28912C 05049B 21011.00000000 .00000110 00000-0 00000-0 0 112 2 28912 4.8698 69.2347 0001049 270.6150 134.1158 1.00270060 15 METEOSAT-10 (MSG3) 1 38552C 12035B 21011.00000000 .00000155 00000-0 00000-0 0 115 2 38552 1.2413 355.8247 0000629 42.1526 82.2506 1.00263051 19 METEOSAT-11 (MSG4) 1 40732C 15034A 21011.00000000 .00000093 00000-0 00000-0 0 111 2 40732 0.3489 260.9364 0001119 264.3475 306.2308 1.00281370 10